Вернуться в каталог

STARLINK-37455

АктивенСвязьSSO
NORAD 69299·PAYLOAD·🇺🇸 United States

Запущен May 30, 2026 с Vandenberg Space Force Base

Loading…

Ближайшие Пролёты (ближайшие 24 часа)

TLE

СвежийSource: CelesTrak SupGP

Эпоха: Sep 14, 2026, 16:15 UTC

1 69299C 26119D   26257.67756944 -.00060789  00000+0 -18885-2 0  2574
2 69299  97.2827 282.4435 0001575 106.8817  33.6201 15.33445953    17

Отслеживайте STARLINK-37455 в реальном времени с AllMySat

Download on the App Store